GW6341 Weather Reports


time (UTC)temp
C
wind
direction
speed
KPH
gust
KPH
rain 1hr
cm
rain 24hr
cm
rain mn
cm
humidity
%
barometer
mb
20260507051839 10 31 0.0 0.0 0.00 0.00 0.00 95 1020.3
20260507051337 10 31 0.0 1.6 0.00 0.00 0.00 95 1020.3
20260507050833 10 32 0.0 0.0 0.00 0.00 0.00 95 1020.3
20260507050330 10 32 0.0 0.0 0.00 0.00 0.00 95 1020.3
20260507045827 10 38 0.0 0.0 0.00 0.00 0.00 95 1020.2
20260507045323 10 36 0.0 1.6 0.00 0.00 0.00 95 1020.1
20260507044820 10 36 0.0 1.6 0.00 0.00 0.00 95 1020.1
20260507044317 10 22 0.0 1.6 0.00 0.00 0.00 95 1019.9
20260507043813 10 21 0.0 0.0 0.00 0.00 0.00 95 1019.9
20260507043310 10 24 0.0 1.6 0.00 0.00 0.00 94 1020.1
20260507042806 10 27 1.6 1.6 0.00 0.00 0.00 94 1020.1
20260507042301 10 28 0.0 0.0 0.00 0.00 0.00 94 1020.0
20260507041759 10 25 1.6 1.6 0.00 0.00 0.00 93 1019.7
20260507041255 10 28 1.6 1.6 0.00 0.00 0.00 93 1019.8
20260507040752 10 28 0.0 1.6 0.00 0.00 0.00 93 1019.8
20260507040248 11 20 1.6 1.6 0.00 0.00 0.00 93 1019.8
20260507035745 11 28 1.6 1.6 0.00 0.00 0.00 92 1019.4
20260507035240 11 36 0.0 0.0 0.00 0.00 0.00 91 1019.4
20260507034738 11 37 0.0 1.6 0.00 0.00 0.00 91 1019.5
20260507034235 11 68 0.0 0.0 0.00 0.00 0.00 90 1019.3
20260507033733 12 30 0.0 1.6 0.00 0.00 0.00 90 1019.5
20260507033230 12 45 0.0 0.0 0.00 0.00 0.00 90 1019.4
20260507032728 12 36 0.0 1.6 0.00 0.00 0.00 90 1019.4
20260507032223 12 38 0.0 0.0 0.00 0.00 0.00 90 1019.4
20260507031720 12 36 0.0 0.0 0.00 0.00 0.00 89 1019.3
20260507031217 12 50 0.0 1.6 0.00 0.00 0.00 88 1019.2
20260507030714 12 59 0.0 0.0 0.00 0.00 0.00 87 1019.2
20260507030211 12 69 0.0 0.0 0.00 0.00 0.00 87 1019.3
20260507025708 13 57 0.0 0.0 0.00 0.00 0.00 86 1019.0
20260507025205 13 59 0.0 0.0 0.00 0.00 0.00 85 1019.3
20260507024703 13 67 0.0 0.0 0.00 0.00 0.00 85 1019.2
20260507024200 13 69 0.0 0.0 0.00 0.00 0.00 84 1018.9
20260507023655 13 37 1.6 1.6 0.00 0.00 0.00 84 1019.0
20260507023153 14 71 0.0 0.0 0.00 0.00 0.00 83 1019.1
20260507022650 14 108 0.0 1.6 0.00 0.00 0.00 83 1019.0
20260507022146 15 79 0.0 0.0 0.00 0.00 0.00 82 1019.0
20260507021642 15 131 1.6 1.6 0.00 0.00 0.00 80 1019.4
20260507021137 15 80 0.0 0.0 0.00 0.00 0.00 80 1019.2
20260507020636 15 143 4.8 8.0 0.00 0.00 0.00 81 1019.1
20260507020132 15 77 0.0 0.0 0.00 0.00 0.00 81 1019.0
20260507015631 15 90 0.0 0.0 0.00 0.00 0.00 81 1019.1
20260507015128 15 193 4.8 4.8 0.00 0.00 0.00 80 1019.1
20260507014624 15 103 1.6 3.2 0.00 0.00 0.00 80 1019.1
20260507014120 16 187 3.2 3.2 0.00 0.00 0.00 78 1019.1
20260507013617 16 153 4.8 8.0 0.00 0.00 0.00 79 1019.0
20260507013114 16 108 4.8 4.8 0.00 0.00 0.00 79 1019.0
20260507012612 16 195 4.8 4.8 0.00 0.00 0.00 77 1019.1
20260507012107 16 183 3.2 3.2 0.00 0.00 0.00 77 1019.2
20260507011605 16 152 3.2 3.2 0.00 0.00 0.00 76 1018.9
20260507011101 16 117 6.4 9.7 0.00 0.00 0.00 77 1019.2
20260507010556 17 148 3.2 3.2 0.00 0.00 0.00 77 1019.3
20260507010052 17 120 1.6 1.6 0.00 0.00 0.00 78 1019.2
20260507005550 17 164 6.4 8.0 0.00 0.00 0.00 76 1019.2
20260507005046 17 59 1.6 1.6 0.00 0.00 0.00 76 1019.1
20260507004543 17 131 8.0 11.3 0.00 0.00 0.00 75 1019.1
20260507004040 17 166 3.2 4.8 0.00 0.00 0.00 73 1019.1
20260507003536 18 120 1.6 3.2 0.00 0.00 0.00 72 1018.9
20260507003031 18 116 1.6 3.2 0.00 0.00 0.00 74 1018.9
20260507002528 18 138 3.2 4.8 0.00 0.00 0.00 74 1018.9
20260507002024 19 135 3.2 3.2 0.00 0.00 0.00 69 1019.1
20260507001521 18 35 0.0 1.6 0.00 0.00 0.00 71 1019.1
20260507001018 19 137 3.2 3.2 0.00 0.00 0.00 71 1019.1
20260507000514 18 125 3.2 3.2 0.00 0.00 0.00 72 1019.2
20260507000010 18 141 6.4 8.0 0.00 0.00 0.00 71 1019.0
20260506235507 18 104 3.2 3.2 0.00 0.00 0.00 72 1019.0
20260506235003 19 134 11.3 12.9 0.00 0.00 0.00 71 1018.8
20260506234500 18 72 0.0 0.0 0.00 0.00 0.00 70 1019.0
20260506233958 19 108 4.8 4.8 0.00 0.00 0.00 71 1018.9
20260506233454 19 240 3.2 3.2 0.00 0.00 0.00 71 1019.1
20260506232951 19 104 3.2 3.2 0.00 0.00 0.00 68 1018.8
20260506232447 20 179 6.4 8.0 0.00 0.00 0.00 73 1018.8
20260506231943 20 261 4.8 8.0 0.00 0.00 0.00 70 1018.9
20260506231441 20 202 6.4 9.7 0.00 0.00 0.00 69 1018.9
20260506230938 20 156 4.8 9.7 0.00 0.00 0.00 72 1019.1
20260506230434 20 142 6.4 8.0 0.00 0.00 0.00 69 1019.1
20260506225931 20 121 11.3 14.5 0.00 0.00 0.00 71 1018.9
20260506225428 20 193 4.8 4.8 0.00 0.00 0.00 70 1019.0
20260506224925 20 160 4.8 8.0 0.00 0.00 0.00 72 1019.1
20260506224422 20 155 4.8 8.0 0.00 0.00 0.00 70 1019.0
20260506223919 20 135 6.4 8.0 0.00 0.00 0.00 72 1019.1
20260506223414 20 184 6.4 9.7 0.00 0.00 0.00 71 1019.1
20260506222911 20 142 9.7 12.9 0.00 0.00 0.00 70 1019.4
20260506222408 20 236 4.8 8.0 0.00 0.00 0.00 70 1019.2
20260506221905 20 184 6.4 9.7 0.00 0.00 0.00 72 1019.2
20260506221402 20 90 3.2 3.2 0.00 0.00 0.00 72 1019.2
20260506220859 20 145 8.0 8.0 0.00 0.00 0.00 70 1019.1
20260506220355 20 105 0.0 1.6 0.00 0.00 0.00 71 1019.3
20260506215852 20 118 3.2 3.2 0.00 0.00 0.00 69 1019.3
20260506215348 20 137 8.0 11.3 0.00 0.00 0.00 72 1019.2
20260506214844 19 94 4.8 8.0 0.00 0.00 0.00 70 1019.2
20260506214341 19 108 4.8 4.8 0.00 0.00 0.00 74 1019.5
20260506213839 19 48 6.4 9.7 0.00 0.00 0.00 75 1019.4
20260506213336 19 109 8.0 11.3 0.00 0.00 0.00 68 1019.2
20260506212833 19 88 3.2 8.0 0.00 0.00 0.00 71 1019.3
20260506212329 19 48 1.6 1.6 0.00 0.00 0.00 69 1019.3
20260506211824 19 57 1.6 3.2 0.00 0.00 0.00 73 1019.4
20260506211320 19 83 1.6 3.2 0.00 0.00 0.00 73 1019.2
20260506210818 20 168 1.6 3.2 0.00 0.00 0.00 73 1019.3
20260506210314 18 85 0.0 1.6 0.00 0.00 0.00 72 1019.4
20260506205812 18 111 4.8 4.8 0.00 0.00 0.00 74 1019.4
20260506205307 18 197 4.8 4.8 0.00 0.00 0.00 72 1019.6
20260506204804 18 162 1.6 3.2 0.00 0.00 0.00 78 1019.5
20260506204302 17 151 4.8 4.8 0.00 0.00 0.00 73 1019.5
20260506203800 17 179 4.8 4.8 0.00 0.00 0.00 75 1019.7
20260506203257 18 176 4.8 4.8 0.00 0.00 0.00 76 1019.6
20260506202753 18 178 6.4 8.0 0.00 0.00 0.00 74 1019.5
20260506202250 18 171 4.8 4.8 0.00 0.00 0.00 75 1019.9
20260506201747 17 64 0.0 1.6 0.00 0.00 0.00 78 1019.7
20260506201243 17 145 8.0 9.7 0.00 0.00 0.00 77 1019.6
20260506200741 17 120 4.8 4.8 0.00 0.00 0.00 78 1019.8
20260506200237 17 115 4.8 4.8 0.00 0.00 0.00 75 1019.7
20260506195733 17 107 4.8 4.8 0.00 0.00 0.00 79 1019.8
20260506195230 16 107 6.4 8.0 0.00 0.00 0.00 79 1019.9
20260506194727 16 76 1.6 3.2 0.00 0.00 0.00 77 1019.7
20260506194224 17 80 6.4 8.0 0.00 0.00 0.00 78 1019.4
20260506193722 17 199 6.4 9.7 0.00 0.00 0.00 77 1019.6
20260506193218 17 114 4.8 4.8 0.00 0.00 0.00 83 1019.7
20260506192715 17 37 0.0 1.6 0.00 0.00 0.00 78 1019.9
20260506192212 17 210 1.6 1.6 0.00 0.00 0.00 75 1019.8
20260506191709 17 193 6.4 8.0 0.00 0.00 0.00 78 1019.8
20260506191205 17 221 9.7 11.3 0.00 0.00 0.00 78 1019.9
20260506190703 16 154 3.2 3.2 0.00 0.00 0.00 78 1019.7
20260506190159 16 210 4.8 4.8 0.00 0.00 0.00 80 1019.8
20260506185656 16 132 4.8 8.0 0.00 0.00 0.00 81 1019.7
20260506185152 16 129 4.8 4.8 0.00 0.00 0.00 82 1019.9
20260506184650 16 181 9.7 11.3 0.00 0.00 0.00 76 1019.7
20260506184147 16 132 8.0 11.3 0.00 0.00 0.00 80 1019.8
20260506183643 17 171 6.4 8.0 0.00 0.00 0.00 78 1019.6
20260506183139 16 178 3.2 3.2 0.00 0.00 0.00 81 1019.7
20260506182637 16 192 3.2 3.2 0.00 0.00 0.00 78 1019.7
20260506182133 16 122 6.4 9.7 0.00 0.00 0.00 82 1019.7
20260506181632 16 215 3.2 3.2 0.00 0.00 0.00 81 1019.9
20260506181128 16 336 1.6 1.6 0.00 0.00 0.00 79 1019.8
20260506180625 16 199 9.7 11.3 0.00 0.00 0.00 80 1019.9
20260506180122 16 267 4.8 8.0 0.00 0.00 0.00 80 1019.8
20260506175618 15 76 3.2 4.8 0.00 0.00 0.00 78 1019.9
20260506175114 16 168 8.0 9.7 0.00 0.00 0.00 84 1019.8
20260506174613 16 64 0.0 0.0 0.00 0.00 0.00 78 1019.6
20260506174109 16 219 4.8 4.8 0.00 0.00 0.00 82 1019.6
20260506173607 16 98 3.2 4.8 0.00 0.00 0.00 82 1019.5
20260506173103 15 172 1.6 1.6 0.00 0.00 0.00 84 1019.5
20260506172601 15 182 6.4 8.0 0.00 0.00 0.00 82 1019.6
20260506172057 15 132 1.6 1.6 0.00 0.00 0.00 82 1019.6
20260506171555 15 219 3.2 3.2 0.00 0.00 0.00 82 1019.8
20260506171052 15 145 6.4 8.0 0.00 0.00 0.00 83 1020.0
20260506170549 15 193 4.8 4.8 0.00 0.00 0.00 88 1019.7
20260506170047 14 150 1.6 3.2 0.00 0.00 0.00 85 1019.8
20260506165545 13 26 0.0 1.6 0.00 0.00 0.00 87 1019.7
20260506165041 14 108 1.6 1.6 0.00 0.00 0.00 86 1019.8
20260506164538 14 33 0.0 1.6 0.00 0.00 0.00 86 1019.6
20260506164035 13 100 3.2 3.2 0.00 0.00 0.00 88 1019.9
20260506163531 13 63 1.6 3.2 0.00 0.00 0.00 90 1020.1
20260506163027 13 80 0.0 1.6 0.00 0.00 0.00 92 1019.9
20260506162524 13 79 0.0 1.6 0.00 0.00 0.00 90 1020.0
20260506162021 12 80 0.0 1.6 0.00 0.00 0.00 91 1020.0
20260506161519 12 153 3.2 3.2 0.00 0.00 0.00 92 1019.7
20260506161016 12 83 1.6 1.6 0.00 0.00 0.00 92 1019.7
20260506160514 12 206 3.2 3.2 0.00 0.00 0.00 92 1019.7
20260506160011 12 19 1.6 1.6 0.00 0.00 0.00 93 1019.5
20260506155509 11 171 0.0 1.6 0.00 0.00 0.00 95 1019.5
20260506153640 11 187 3.2 3.2 0.00 0.00 0.00 98 1019.5
20260506153137 11 78 0.0 0.0 0.00 0.00 0.00 99 1019.7
20260506152634 11 61 0.0 0.0 0.00 0.00 0.00 99 1019.7
20260506152131 11 84 1.6 1.6 0.00 0.00 0.00 99 1019.6
20260506151630 11 64 0.0 1.6 0.00 0.00 0.00 99 1019.8
20260506151126 10 47 0.0 0.0 0.00 0.00 0.00 99 1019.9
20260506150623 10 54 0.0 1.6 0.00 0.00 0.00 99 1019.8
20260506150120 10 95 1.6 3.2 0.00 0.00 0.00 99 1019.8
20260506145617 10 105 1.6 3.2 0.00 0.00 0.00 99 1019.8
20260506145114 10 60 0.0 0.0 0.00 0.00 0.00 99 1019.9
20260506144611 10 75 0.0 0.0 0.00 0.00 0.00 99 1019.9
20260506144108 10 70 0.0 0.0 0.00 0.00 0.00 99 1019.8
20260506143606 10 49 0.0 1.6 0.00 0.00 0.00 99 1019.8
20260506143103 10 74 0.0 1.6 0.00 0.00 0.00 99 1019.7
20260506142601 10 49 0.0 0.0 0.00 0.00 0.00 99 1019.3
20260506142059 10 25 0.0 0.0 0.00 0.00 0.00 99 1019.2
20260506141557 10 103 1.6 1.6 0.00 0.00 0.00 99 1019.0
20260506141055 10 37 0.0 0.0 0.00 0.00 0.00 99 1019.1
20260506140552 10 84 0.0 1.6 0.00 0.00 0.00 99 1018.9
20260506140049 10 116 1.6 1.6 0.00 0.00 0.00 99 1019.0
20260506135546 10 67 0.0 0.0 0.00 0.00 0.00 99 1019.0
20260506135042 10 78 0.0 0.0 0.00 0.00 0.00 99 1018.8
20260506134539 10 23 0.0 0.0 0.00 0.00 0.00 99 1018.8
20260506134035 10 67 0.0 0.0 0.00 0.00 0.00 99 1018.8
20260506133532 10 45 0.0 0.0 0.00 0.00 0.00 99 1018.9
20260506133029 10 28 0.0 0.0 0.00 0.00 0.00 99 1018.7
20260506132526 10 74 0.0 0.0 0.00 0.00 0.00 99 1018.9
20260506132024 10 70 0.0 0.0 0.00 0.00 0.00 99 1018.8
20260506131520 10 72 0.0 0.0 0.00 0.00 0.00 99 1018.6
20260506131017 10 24 0.0 0.0 0.00 0.00 0.00 99 1018.7
20260506130514 10 14 0.0 0.0 0.00 0.00 0.00 99 1018.6
20260506130011 10 18 0.0 0.0 0.00 0.00 0.00 99 1018.4
20260506125509 10 7 0.0 0.0 0.00 0.00 0.00 99 1018.5
20260506125007 10 46 0.0 0.0 0.00 0.00 0.00 99 1018.6
20260506124504 10 47 0.0 0.0 0.00 0.00 0.00 99 1018.3
20260506124002 10 47 0.0 0.0 0.00 0.00 0.00 99 1018.3
20260506123500 9 47 0.0 0.0 0.00 0.00 0.00 99 1018.4
20260506122957 9 47 0.0 0.0 0.00 0.00 0.00 99 1018.5
20260506122454 10 44 0.0 0.0 0.00 0.00 0.00 99 1018.5
20260506121953 10 44 0.0 0.0 0.00 0.00 0.00 99 1018.7
20260506121449 9 44 0.0 0.0 0.00 0.00 0.00 99 1018.5
20260506120946 10 44 0.0 0.0 0.00 0.00 0.00 99 1018.6
20260506120443 9 22 0.0 0.0 0.00 0.00 0.00 99 1018.4
20260506115941 10 22 0.0 0.0 0.00 0.00 0.00 99 1018.4
20260506115439 10 22 0.0 0.0 0.00 0.00 0.00 99 1018.2
20260506114937 10 22 0.0 0.0 0.00 0.00 0.00 99 1018.2
20260506114434 10 50 0.0 0.0 0.00 0.00 0.00 99 1018.2
20260506113932 10 52 1.6 1.6 0.00 0.00 0.00 99 1018.2
20260506113430 10 71 1.6 1.6 0.00 0.00 0.00 99 1018.3
20260506112926 10 30 0.0 0.0 0.00 0.00 0.00 99 1018.0
20260506112424 10 36 1.6 1.6 0.00 0.00 0.00 99 1017.9
20260506111921 10 76 1.6 3.2 0.00 0.00 0.00 99 1018.0
20260506111419 10 67 0.0 0.0 0.00 0.00 0.00 99 1017.7
20260506110916 10 68 0.0 0.0 0.00 0.00 0.00 99 1017.9
20260506110414 10 68 0.0 0.0 0.00 0.00 0.00 99 1017.7
20260506105910 10 69 0.0 0.0 0.00 0.00 0.00 99 1017.7
20260506105406 9 66 0.0 0.0 0.00 0.00 0.00 99 1017.6
20260506104904 9 66 0.0 0.0 0.00 0.00 0.00 99 1017.4
20260506104401 9 36 0.0 0.0 0.00 0.00 0.00 99 1017.5
20260506103859 9 37 0.0 0.0 0.00 0.00 0.00 99 1017.5
20260506103356 9 37 0.0 0.0 0.00 0.00 0.00 99 1017.3
20260506102853 9 37 0.0 0.0 0.00 0.00 0.00 99 1017.2
20260506102351 9 38 0.0 0.0 0.00 0.00 0.00 99 1017.1
20260506101848 9 38 0.0 0.0 0.00 0.00 0.00 99 1017.3
20260506101344 10 38 0.0 0.0 0.00 0.00 0.00 99 1017.2
20260506100842 10 38 0.0 0.0 0.00 0.00 0.00 99 1017.2
20260506100340 10 38 0.0 0.0 0.00 0.00 0.00 99 1017.0
20260506095838 10 38 0.0 0.0 0.00 0.00 0.00 99 1017.1
20260506095335 10 38 0.0 0.0 0.00 0.00 0.00 99 1017.2
20260506094832 10 38 0.0 0.0 0.00 0.00 0.00 99 1017.0
20260506094331 10 38 0.0 0.0 0.00 0.00 0.00 99 1017.0
20260506093829 10 37 0.0 0.0 0.00 0.00 0.00 99 1017.3
20260506093326 9 37 0.0 0.0 0.00 0.00 0.00 99 1016.9
20260506092823 10 37 0.0 0.0 0.00 0.00 0.00 99 1016.8
20260506092321 10 37 0.0 0.0 0.00 0.00 0.00 99 1016.9
20260506091818 10 37 0.0 0.0 0.00 0.00 0.00 99 1016.7
20260506091315 10 37 0.0 0.0 0.00 0.00 0.00 99 1016.7
20260506090813 10 37 0.0 0.0 0.00 0.00 0.00 99 1016.8
20260506090310 10 37 0.0 0.0 0.00 0.00 0.00 99 1016.9
20260506085807 10 37 0.0 0.0 0.00 0.00 0.00 99 1016.9
20260506085305 10 37 0.0 0.0 0.00 0.00 0.00 99 1016.8
20260506084759 10 37 0.0 0.0 0.00 0.00 0.00 99 1016.8
20260506084256 10 37 0.0 0.0 0.00 0.00 0.00 99 1016.6
20260506083753 10 37 0.0 0.0 0.00 0.00 0.00 99 1016.8
20260506083251 10 37 0.0 0.0 0.00 0.00 0.00 99 1016.8
20260506082748 10 37 0.0 0.0 0.00 0.00 0.00 99 1016.7
20260506082243 10 37 0.0 0.0 0.00 0.00 0.00 99 1016.8
20260506081741 10 37 0.0 0.0 0.00 0.00 0.00 99 1016.7
20260506081238 10 37 0.0 0.0 0.00 0.00 0.00 99 1016.5
20260506080737 10 37 0.0 0.0 0.00 0.00 0.00 99 1016.7
20260506080232 10 37 0.0 0.0 0.00 0.00 0.00 99 1016.7
20260506073217 11 37 0.0 0.0 0.00 0.00 0.00 98 1016.4
20260506072713 11 39 0.0 0.0 0.00 0.00 0.00 98 1016.5
20260506072211 11 39 0.0 0.0 0.00 0.00 0.00 98 1016.7
20260506071708 11 38 0.0 0.0 0.00 0.00 0.00 98 1016.7
20260506071206 11 38 0.0 0.0 0.00 0.00 0.00 98 1016.5
20260506070703 11 39 0.0 0.0 0.00 0.00 0.00 98 1016.4
20260506070200 11 50 0.0 0.0 0.00 0.00 0.00 98 1016.5
20260506062137 11 53 0.0 0.0 0.00 0.00 0.00 96 1016.4
20260506061633 12 54 0.0 0.0 0.00 0.00 0.00 95 1016.3
20260506061131 12 47 0.0 0.0 0.00 0.00 0.00 95 1016.1
20260506060629 12 46 0.0 0.0 0.00 0.00 0.00 94 1016.1
20260506060125 12 86 0.0 0.0 0.00 0.00 0.00 93 1016.1